Regional Weather Roundup
Issued by NWS

Home | Current Version | Previous Version | Text Only | Print | Product List | Glossary Off
Versions: 1 2 3 4 5 6 7 8 9 10 11 12 13 14 15 16 17 18 19 20 21 22 23 24 25 26 27 28 29 30 31 32 33 34 35 36 37 38 39 40 41 42 43 44 45 46 47 48 49 50

000
ASUS43 KOAX 281802
RWRNE

WEATHER ROUNDUP FOR NEBRASKA
NATIONAL WEATHER SERVICE OMAHA NE
1200 PM CST FRI NOV 28 2014

NOTES: SATELLITE DATA IS BEING USED TO AUGMENT CLOUD COVER ABOVE
       12000 FEET.
       "FAIR" INDICATES FEW OR NO CLOUDS BELOW 12,000 FEET WITH NO
       SIGNIFICANT WEATHER AND/OR OBSTRUCTIONS TO VISIBILITY.

  * THESE STATIONS DO NOT REPORT WEATHER SUCH AS RAIN...SNOW OR FOG.

NEZ001>004-019>022-054>056-281900-
NEBRASKA PANHANDLE

CITY           SKY/WX    TMP DP  RH WIND       PRES   REMARKS
SCOTTSBLUFF    CLOUDY    62  26  25 NW7       29.80F
6HR MIN TEMP:  34; 6HR MAX TEMP:  63;

ALLIANCE       MOSUNNY   65  21  18 W28G35    29.76F
6HR MIN TEMP:  29; 6HR MAX TEMP:  65;

CHADRON        SUNNY    N/A N/A N/A SW9       29.74F
SIDNEY         CLOUDY    65  21  18 W18G26    29.85F
6HR MIN TEMP:  32; 6HR MAX TEMP:  66;

$$

NEZ057>060-069>072-079>082-281900-
SOUTHWEST NEBRASKA

CITY           SKY/WX    TMP DP  RH WIND       PRES   REMARKS
NORTH PLATTE   MOSUNNY   60  27  28 NW12      29.78F
6HR MIN TEMP:  19; 6HR MAX TEMP:  60;

IMPERIAL       SUNNY     72  20  14 W20       29.82F
6HR MIN TEMP:  28; 6HR MAX TEMP:  72;

MCCOOK         SUNNY     70  23  17 SW15      29.80F
6HR MIN TEMP:  28; 6HR MAX TEMP:  70;

$$

NEZ005>010-023>029-035>040-094-281900-
NORTH CENTRAL NEBRASKA

CITY           SKY/WX    TMP DP  RH WIND       PRES   REMARKS
VALENTINE      MOSUNNY   60  27  28 W16       29.68F
6HR MIN TEMP:  27; 6HR MAX TEMP:  60;

BROKEN BOW       N/A     65  27  23 W20G25    29.73F
6HR MIN TEMP:  26; 6HR MAX TEMP:  66;

ORD            MOSUNNY   59  30  33 CALM      29.70F
6HR MIN TEMP:  16; 6HR MAX TEMP:  60;

$$

NEZ041-046>049-061>064-073>077-083>087-281900-
SOUTH CENTRAL NEBRASKA

CITY           SKY/WX    TMP DP  RH WIND       PRES   REMARKS
GRAND ISLAND   MOSUNNY   59  30  33 SW16      29.75F
6HR MIN TEMP:  23; 6HR MAX TEMP:  59;

HASTINGS       SUNNY     61  28  28 SW8       29.76F
6HR MIN TEMP:  25; 6HR MAX TEMP:  61;

KEARNEY *      SUNNY     61  30  31 SW13      29.79F
$$

NEZ011>018-030>034-042>045-281900-
NORTHEAST NEBRASKA

CITY           SKY/WX    TMP DP  RH WIND       PRES   REMARKS
NORFOLK        SUNNY     49  28  44 SE8       29.71F
6HR MIN TEMP:  25; 6HR MAX TEMP:  49;

COLUMBUS *     MOSUNNY   46  28  49 S5        29.76F
TEKAMAH        SUNNY     45  29  53 S10       29.78F
6HR MIN TEMP:  20; 6HR MAX TEMP:  45;

$$

NEZ050>053-065>068-078-088>093-281900-
SOUTHEAST NEBRASKA

CITY           SKY/WX    TMP DP  RH WIND       PRES   REMARKS
LINCOLN        PTSUNNY   47  27  45 S8        29.79F
6HR MIN TEMP:  23; 6HR MAX TEMP:  47;

OMAHA EPPLEY   PTSUNNY   42  28  57 S13       29.81F
6HR MIN TEMP:  28; 6HR MAX TEMP:  42;

FALLS CITY     MOSUNNY   52  30  43 S9        29.83F
6HR MIN TEMP:  26; 6HR MAX TEMP:  52;

NEBRASKA CITY  PTSUNNY   47  25  41 S9        29.81F
$$

NEZ044-045-051>053-067-281900-
OMAHA AREA

CITY           SKY/WX    TMP DP  RH WIND       PRES   REMARKS
OMAHA EPPLEY   PTSUNNY   42  28  57 S13       29.81F
6HR MIN TEMP:  28; 6HR MAX TEMP:  42;

MILLARD        PTSUNNY   44  29  57 SE8       29.78F
OFFUTT AFB     PTSUNNY   43  28  57 SE10      29.79F
$$



USA.gov is the U.S. government's official web portal to all federal, state and local government web resources and services.